This demonstration page uses our WeatherBlox Daily Observations layout. Learn more.

40.92945, -100.16068

Hourly Observations for January 29, 2020

Temp ( °F °C ) Dew Point ( °F °C ) Humidity (%) Winds ( mph kmh ) Pressure ( in mb ) Visibility ( mi km ) Precip ( " mm )
12:15 am 00:15 Mostly Cloudy with Mist and Fog 28 -2.3 28 -2.3 100 100 Calm 30.18 1022 1 1.60934 0 0
12:35 am 00:35 Cloudy with Mist and Fog 28 -2.5 27 -2.6 99 99 NNW 3 6 30.18 1022 0.75 1.207005 0 0
12:55 am 00:55 Partly Cloudy 27 -2.6 27 -2.7 99 99 Calm 30.18 1022 10 16.0934 0 0
1:15 am 01:15 Clear 27 -2.6 27 -2.7 99 99 Calm 30.18 1022 10 16.0934 0 0
1:35 am 01:35 Clear 27 -3 26 -3.2 99 99 Calm 30.19 1022 10 16.0934 0 0
1:55 am 01:55 Clear 27 -3 26 -3.1 99 99 Calm 30.19 1022 10 16.0934 0 0
2:15 am 02:15 Clear 27 -2.7 27 -3 98 98 W 5 7 30.18 1022 10 16.0934 0 0
2:35 am 02:35 Clear 27 -2.9 26 -3.1 99 99 W 3 6 30.19 1022 10 16.0934 0 0
2:55 am 02:55 Clear 27 -3 26 -3.2 99 99 WSW 3 6 30.19 1022 10 16.0934 0 0
3:15 am 03:15 Partly Cloudy 27 -3 26 -3.2 99 99 W 7 11 30.2 1023 10 16.0934 0 0
3:35 am 03:35 Partly Cloudy 27 -3 26 -3.1 99 99 W 3 6 30.2 1023 10 16.0934 0 0
3:55 am 03:55 Partly Cloudy 26 -3.2 26 -3.5 98 98 Calm 30.19 1022 10 16.0934 0 0
4:15 am 04:15 Partly Cloudy 26 -3.5 25 -3.8 98 98 W 3 6 30.2 1023 10 16.0934 0 0
4:35 am 04:35 Clear 26 -3.5 25 -3.8 98 98 Calm 30.2 1023 10 16.0934 0 0
4:55 am 04:55 Clear 25 -3.7 25 -4 98 98 W 5 7 30.2 1023 10 16.0934 0 0
5:15 am 05:15 Clear 26 -3.3 26 -3.6 98 98 W 3 6 30.2 1023 10 16.0934 0 0
5:35 am 05:35 Clear 25 -3.9 24 -4.3 97 97 WNW 3 6 30.2 1023 10 16.0934 0 0
5:55 am 05:55 Clear 25 -3.8 25 -4.1 98 98 Calm 30.21 1023 10 16.0934 0 0
6:15 am 06:15 Clear 25 -4 24 -4.4 97 97 Calm 30.21 1023 10 16.0934 0 0
6:35 am 06:35 Clear 25 -4.1 24 -4.5 97 97 Calm 30.21 1023 10 16.0934 0 0
6:55 am 06:55 Clear 24 -4.4 24 -4.7 98 98 SW 3 6 30.22 1023 10 16.0934 0 0
7:15 am 07:15 Clear 24 -4.5 23 -4.8 98 98 Calm 30.22 1023 10 16.0934 0 0
7:35 am 07:35 Clear 24 -4.4 23 -4.8 97 97 WSW 3 6 30.23 1024 10 16.0934 0 0
7:55 am 07:55 Sunny 24 -4.3 24 -4.7 97 97 W 5 7 30.24 1024 10 16.0934 0 0
8:15 am 08:15 Sunny 25 -3.8 25 -4.1 98 98 W 3 6 30.25 1024 10 16.0934 0 0
8:35 am 08:35 Sunny 26 -3.5 25 -3.9 97 97 Calm 30.24 1024 10 16.0934 0 0
8:55 am 08:55 Sunny 27 -2.8 27 -3 99 99 Calm 30.24 1024 10 16.0934 0 0
9:15 am 09:15 Sunny 28 -2.4 28 -2.5 99 99 Calm 30.23 1024 10 16.0934 0 0
9:35 am 09:35 Sunny 29 -1.6 29 -1.8 99 99 Calm 30.22 1023 10 16.0934 0 0
9:55 am 09:55 Sunny 30 -1 30 -1.2 99 99 Calm 30.22 1023 10 16.0934 0 0
10:15 am 10:15 Sunny 32 -0.2 31 -0.6 97 97 Calm 30.21 1023 10 16.0934 0 0
10:35 am 10:35 Sunny 33 0.3 32 0 98 98 SSW 3 6 30.21 1023 10 16.0934 0 0
10:55 am 10:55 Sunny 34 1 33 0.4 96 96 Calm 30.21 1023 10 16.0934 0 0
11:15 am 11:15 Sunny 36 2 34 1 93 93 WSW 3 6 30.2 1023 10 16.0934 0 0
11:35 am 11:35 Sunny 37 2.8 35 1.4 91 91 SW 3 6 30.19 1022 10 16.0934 0 0
11:55 am 11:55 Sunny 38 3.5 35 1.5 87 87 SW 3 6 30.17 1022 10 16.0934 0 0
12:15 pm 12:15 Sunny 39 4 35 1.5 84 84 SW 5 7 30.16 1021 10 16.0934 0 0
12:35 pm 12:35 Sunny 40 4.2 35 1.6 83 83 SSW 5 7 30.15 1021 10 16.0934 0 0
12:55 pm 12:55 Sunny 40 4.7 35 1.8 82 82 SSW 6 9 30.13 1020 10 16.0934 0 0
1:15 pm 13:15 Sunny 41 5.2 36 2.1 81 81 SSW 7 11 30.12 1020 10 16.0934 0 0
1:35 pm 13:35 Sunny 41 5.1 36 2.1 81 81 SW 8 13 30.12 1020 10 16.0934 0 0
1:55 pm 13:55 Sunny 41 5 36 2 81 81 SSW 8 13 30.12 1020 10 16.0934 0 0
2:15 pm 14:15 Partly Cloudy 41 5.1 36 2.3 82 82 WSW 8 13 30.11 1020 10 16.0934 0 0
2:35 pm 14:35 Mostly Cloudy 41 5.1 36 2.2 82 82 SW 9 15 30.11 1020 10 16.0934 0 0
2:55 pm 14:55 Cloudy 42 5.5 36 2.1 79 79 SW 6 9 30.1 1019 10 16.0934 0 0
3:15 pm 15:15 Partly Cloudy 42 5.3 35 1.6 77 77 WSW 6 9 30.11 1019 10 16.0934 0 0
3:35 pm 15:35 Sunny 42 5.3 35 1.8 78 78 WSW 5 7 30.1 1019 10 16.0934 0 0
3:55 pm 15:55 Mostly Cloudy 41 5.1 35 1.4 77 77 SW 6 9 30.1 1019 10 16.0934 0 0
4:15 pm 16:15 Partly Cloudy 41 4.9 35 1.5 79 79 SSW 7 11 30.1 1019 10 16.0934 0 0
4:35 pm 16:35 Partly Cloudy 40 4.7 35 1.7 81 81 SSW 6 9 30.1 1019 10 16.0934 0 0
4:55 pm 16:55 Cloudy 40 4.4 35 1.9 84 84 S 6 9 30.1 1019 10 16.0934 0 0
5:15 pm 17:15 Cloudy 39 4 35 1.8 86 86 S 5 7 30.1 1019 10 16.0934 0 0
5:35 pm 17:35 Cloudy 38 3.2 35 1.7 90 90 S 5 7 30.11 1019 10 16.0934 0 0
5:55 pm 17:55 Mostly Cloudy 37 3 35 1.4 89 89 SW 3 6 30.12 1020 10 16.0934 0 0
6:15 pm 18:15 Partly Cloudy 36 2.3 34 1.1 92 92 Calm 30.12 1020 10 16.0934 0 0
6:35 pm 18:35 Partly Cloudy 35 1.8 34 1.2 96 96 Calm 30.14 1021 10 16.0934 0 0
6:55 pm 18:55 Mostly Cloudy 36 2 34 1.3 95 95 Calm 30.14 1021 10 16.0934 0 0
7:15 pm 19:15 Cloudy 35 1.5 34 1.1 97 97 Calm 30.14 1021 10 16.0934 0 0
7:35 pm 19:35 Cloudy 35 1.6 34 1 96 96 SSE 3 6 30.14 1021 10 16.0934 0 0
7:55 pm 19:55 Cloudy 35 1.9 34 1.2 95 95 S 6 9 30.14 1021 10 16.0934 0 0
8:15 pm 20:15 Cloudy 36 2.1 35 1.4 95 95 S 6 9 30.14 1021 10 16.0934 0 0
8:35 pm 20:35 Cloudy 35 1.8 34 1.1 95 95 S 5 7 30.14 1021 10 16.0934 0 0
8:55 pm 20:55 Cloudy 34 1.3 33 0.8 97 97 SSE 6 9 30.13 1020 10 16.0934 0 0
9:15 pm 21:15 Partly Cloudy 34 1.2 33 0.7 97 97 SSE 6 9 30.14 1020 10 16.0934 0 0
9:35 pm 21:35 Mostly Cloudy 34 1 33 0.5 97 97 S 3 6 30.15 1021 10 16.0934 0 0
9:55 pm 21:55 Mostly Cloudy 34 1.1 33 0.6 97 97 SSW 6 9 30.15 1021 10 16.0934 0 0
10:15 pm 22:15 Cloudy 34 1.3 33 0.7 96 96 S 8 13 30.13 1020 10 16.0934 0 0
10:35 pm 22:35 Cloudy 34 1.3 33 0.7 96 96 SSE 7 11 30.12 1020 10 16.0934 0 0
10:55 pm 22:55 Cloudy 35 1.5 33 0.8 95 95 SSE 8 13 30.11 1020 10 16.0934 0 0
11:15 pm 23:15 Cloudy 34 1.2 33 0.7 97 97 Calm 30.13 1020 10 16.0934 0 0
11:35 pm 23:35 Cloudy 34 1 33 0.5 97 97 Calm 30.13 1020 10 16.0934 0 0
11:55 pm 23:55 Cloudy 33 0.8 33 0.5 98 98 Calm 30.13 1020 10 16.0934 0 0

Powered by AerisWeather